RH
52 51 48 44 46 44 36 30 28 26 24 26 38 52 60 64 60 44 30 25 23 21 20 18 17 15 14 13 12 10 10 11 16 23 33 45 57 65 70 73 72 68 62 54 42 34 32 30 26 24 23 24 24 24 25 26 26 25 24 24 24 23 22 22 22 22 22 23 23 23 24 25 25 25 25 25 25 24 24 23 22 22 22 23 23
54 48 43 36 36 38 33 28 28 24 23 31 45 56 57 51 42 31 25 23 21 21 21 18 16 15 13 12 11 9 8 8 10 14 19 26 34 42 51 58 61 60 59 57 53 48 45 42 40 37 36 36 34 33 33 32 30 29 27 26 25 24 23 22 23 23 23 24 27 29 28 28 29 31 31 32 33 32 29 26 25 24 25 26 27
58 45 38 34 36 39 34 30 31 29 31 44 54 55 49 41 33 27 23 22 23 22 21 19 16 15 13 12 11 10 9 9 9 12 19 26 30 33 39 43 44 43 43 43 44 43 43 43 42 42 43 44 44 44 42 40 37 34 31 29 27 25 24 23 24 25 25 26 30 35 36 34 34 37 39 40 43 43 38 33 32 32 32 31 31
50 44 38 37 38 38 38 40 43 43 46 53 53 47 42 36 32 29 27 27 28 26 23 21 19 17 16 15 13 12 11 11 11 12 17 25 31 35 39 39 34 31 29 27 28 28 30 31 32 32 34 36 39 41 43 43 42 41 39 38 36 32 29 28 28 28 29 29 30 36 40 38 37 38 40 41 43 46 44 41 39 39 38 37 36
49 59 62 61 51 36 37 50 57 55 55 53 49 44 40 39 37 35 36 36 34 31 27 26 25 23 21 20 18 17 16 16 16 15 17 20 24 29 32 30 24 21 20 19 19 21 23 26 27 28 31 34 36 37 41 44 45 44 45 46 47 44 39 36 34 34 35 34 33 36 39 40 40 40 41 41 41 42 42 41 41 42 41 39 39
56 67 76 82 74 51 41 53 63 64 61 54 50 49 47 47 47 45 44 42 37 33 31 31 30 29 27 26 24 22 22 22 21 21 20 20 20 21 22 20 18 17 16 17 18 18 20 26 33 39 42 44 46 46 46 47 48 48 48 50 52 53 50 47 43 42 43 43 41 39 38 38 39 39 38 38 37 37 37 36 37 37 36 36 37
53 59 68 75 83 73 54 52 62 68 67 60 56 56 56 54 53 49 46 42 39 37 36 36 35 32 30 29 27 26 26 26 25 24 23 22 21 21 21 21 20 20 20 21 22 22 21 25 37 50 56 56 55 54 55 58 60 59 58 57 57 58 60 59 56 54 55 58 58 55 51 46 43 40 39 38 38 39 42 45 49 49 46 42 39
71 77 78 75 85 89 77 71 75 74 70 68 65 63 61 57 53 50 47 44 42 41 41 41 39 36 34 32 30 29 27 26 26 26 26 25 23 23 24 24 25 25 25 25 25 26 25 23 30 46 61 67 65 61 60 64 70 74 72 68 64 62 62 64 65 65 66 70 73 73 72 68 62 55 48 44 44 43 45 51 57 62 62 59 55
87 89 88 86 91 97 95 94 91 82 72 70 70 67 62 59 56 52 50 48 45 44 44 44 41 38 36 34 32 30 28 27 27 26 26 25 24 24 24 24 24 24 24 25 25 25 25 24 23 29 42 55 60 58 52 48 53 63 73 77 75 70 65 63 64 63 65 73 83 88 90 90 87 81 68 57 54 52 50 50 52 58 64 64 60
81 67 64 71 77 90 100 97 89 83 74 67 69 69 64 61 60 57 55 52 46 42 41 40 39 39 38 36 34 31 29 27 25 25 24 23 23 23 23 22 22 23 24 26 28 29 29 28 25 23 26 31 36 37 34 29 28 35 51 68 77 77 73 69 66 63 59 65 79 91 96 93 90 89 82 70 65 65 64 61 61 64 63 55 49
72 55 57 66 71 86 102 98 87 86 83 72 66 68 65 60 57 55 53 50 45 42 41 39 38 38 37 37 36 34 31 28 25 24 23 22 23 25 26 26 24 25 25 26 32 40 46 47 44 37 30 27 26 26 26 26 25 25 34 49 59 61 59 58 61 65 65 67 73 83 91 90 83 81 82 78 73 76 78 77 76 73 64 53 46
49 46 53 64 74 88 101 101 93 89 83 68 59 62 63 57 52 50 49 48 45 45 44 43 41 39 36 34 34 33 30 27 26 26 26 27 29 31 31 30 27 25 23 23 27 33 42 57 71 70 59 49 42 37 33 30 28 27 29 35 38 35 30 27 31 42 53 61 66 71 78 85 80 70 68 68 66 70 80 84 82 73 59 49 43
38 37 38 46 63 84 98 103 99 89 71 51 52 65 67 58 53 51 48 48 48 48 48 45 42 37 32 29 28 28 27 26 27 28 28 27 29 30 28 26 25 24 23 23 24 23 26 43 67 78 76 74 74 69 61 51 43 39 37 35 34 32 29 25 22 23 28 37 47 53 58 70 80 75 66 62 59 60 72 82 78 63 49 41 37
37 36 33 34 44 64 83 94 97 88 62 38 40 57 63 60 57 50 42 37 35 37 38 37 35 33 30 28 27 28 28 28 28 28 28 28 27 27 24 22 23 24 25 25 27 28 28 30 39 44 48 62 79 85 83 78 70 62 56 52 50 47 42 39 35 32 35 41 50 55 55 62 77 83 80 78 73 66 68 71 64 53 45 41 38
42 39 37 35 37 46 58 66 69 64 46 28 26 33 39 42 41 35 28 23 21 22 23 24 25 27 27 26 27 28 28 29 29 29 31 33 32 29 27 26 28 31 33 33 32 33 34 31 30 30 29 36 47 53 61 72 74 67 59 55 53 49 43 43 43 42 46 52 58 68 77 79 80 83 84 85 83 74 67 63 56 51 49 47 44
44 42 41 40 38 38 40 41 41 37 32 28 27 26 26 26 25 23 21 18 17 17 18 20 22 23 23 24 27 28 28 30 32 33 33 35 36 36 33 30 32 38 44 45 43 41 41 37 34 32 31 30 30 30 33 41 47 48 47 43 41 42 44 49 53 54 54 53 52 61 80 91 91 91 90 86 80 72 62 57 54 51 50 50 49
53 52 50 49 46 44 44 43 40 36 33 31 31 33 34 32 31 31 29 25 22 19 17 17 19 20 21 22 23 25 27 31 37 40 42 42 44 46 42 34 35 44 50 53 54 54 52 47 40 37 35 34 33 32 31 30 31 37 42 40 39 44 51 56 62 67 66 57 48 51 70 89 92 87 83 75 64 57 52 51 51 52 52 52 54
67 64 61 58 57 57 57 56 57 62 62 56 51 49 45 41 40 41 42 41 39 35 31 27 25 26 28 28 28 28 30 35 41 46 48 51 54 56 51 41 38 44 49 52 57 61 61 57 51 44 41 38 36 36 36 35 36 39 43 44 43 46 54 64 76 86 83 69 55 48 53 65 70 67 63 60 53 49 51 54 54 54 55 58 63
74 75 73 69 69 71 71 67 68 75 81 78 71 64 59 58 59 60 60 60 60 60 58 55 53 52 53 52 49 44 42 45 51 54 57 61 64 64 57 45 38 40 44 47 52 59 64 65 61 53 48 43 40 39 38 37 39 42 43 43 43 43 50 65 79 87 87 77 62 48 39 40 46 48 47 47 46 47 52 58 62 63 61 65 74
87 88 88 87 89 90 88 83 79 80 83 82 77 74 76 78 78 77 76 76 77 79 80 79 77 76 74 72 70 66 62 61 65 69 72 73 73 71 63 51 42 40 44 47 53 62 69 70 66 60 54 49 44 41 41 40 40 42 41 41 44 46 51 58 57 61 77 81 61 44 41 39 37 37 38 39 41 46 53 61 68 72 70 72 81
97 95 91 90 94 98 97 94 91 90 89 86 82 82 86 88 88 88 89 88 88 90 92 93 91 88 84 79 77 76 73 69 68 70 71 71 74 76 74 68 63 60 60 61 66 72 75 71 65 60 55 51 47 43 42 41 38 38 39 44 50 48 43 41 32 32 61 83 68 51 53 55 55 59 60 55 46 46 59 72 76 78 79 79 87
101 101 96 92 96 101 100 97 97 97 95 93 92 95 98 100 100 100 100 98 95 91 87 84 81 77 73 70 72 77 81 80 78 78 80 80 81 82 81 79 77 74 71 72 75 76 74 68 61 56 51 48 46 42 41 40 37 35 35 39 44 38 30 40 54 59 71 82 77 69 72 77 83 87 82 72 60 55 68 83 84 85 87 87 92
100 102 101 97 96 97 97 97 99 100 98 96 95 94 94 93 92 90 89 88 85 81 74 69 65 63 62 66 72 77 82 85 87 90 92 92 90 88 86 83 80 77 74 75 76 74 70 63 57 52 48 45 44 41 39 37 36 38 37 35 36 33 26 36 58 74 86 94 91 88 93 97 98 93 84 82 84 85 89 94 92 90 91 91 94
100 100 100 99 98 97 96 96 96 96 96 95 94 91 90 90 89 89 88 88 89 90 88 85 83 82 81 84 87 86 83 83 84 83 82 80 79 79 78 77 76 74 71 69 68 64 61 56 50 47 44 42 41 40 39 39 39 40 41 39 37 36 35 31 27 37 65 92 98 96 100 103 101 96 86 78 79 87 94 98 97 96 96 95 98
102 102 101 101 100 99 99 99 98 98 97 96 96 95 93 92 91 89 87 85 84 85 85 85 84 83 82 81 80 76 72 69 67 65 63 61 59 57 57 57 55 55 54 54 53 52 49 46 43 41 42 42 42 41 40 42 43 42 44 45 41 40 43 38 26 28 49 71 84 94 101 103 103 102 93 82 78 85 94 99 100 99 99 100 103
93 93 92 92 91 88 86 84 82 78 74 72 72 71 69 68 67 65 63 61 60 59 58 57 56 55 54 53 51 49 47 45 45 45 44 44 44 43 43 44 44 46 45 43 42 42 41 42 45 47 51 52 53 53 50 48 50 50 48 46 45 48 51 45 42 57 77 84 90 100 103 102 99 91 81 80 86 92 97 100 100 99 100 103 101
69 70 69 69 68 67 65 64 62 61 60 59 58 57 55 54 53 52 51 50 48 47 45 43 42 41 40 39 38 37 38 38 40 40 41 42 42 42 42 43 44 44 42 43 51 57 57 56 55 54 57 58 57 57 54 51 52 52 50 50 51 54 55 48 46 67 92 100 102 103 101 98 94 86 82 87 93 95 98 100 100 101 102 99 91
62 64 64 64 64 63 63 64 64 64 63 61 59 57 55 53 52 50 49 47 45 44 42 41 40 37 36 35 34 34 35 36 37 38 37 38 38 37 38 37 35 33 31 34 45 55 56 56 52 48 50 54 54 53 51 49 50 50 50 57 63 62 58 53 51 61 78 91 98 98 91 83 81 86 94 99 97 96 98 99 100 102 99 89 78
71 72 72 72 72 71 71 69 67 64 62 60 57 54 51 48 45 42 40 38 35 34 32 29 27 25 23 23 21 21 21 21 21 21 20 20 21 20 20 18 16 16 15 13 20 32 43 52 58 60 65 73 76 71 63 55 53 54 56 67 78 77 68 62 58 58 62 66 69 68 63 65 77 91 98 98 96 98 100 100 100 96 87 77 69
79 77 74 72 70 68 66 64 61 59 55 50 45 40 35 31 28 24 22 20 18 17 15 14 13 11 11 10 10 10 9 8 8 9 7 8 8 7 8 8 7 8 8 8 20 41 58 71 81 84 86 88 82 72 65 59 55 55 58 64 72 76 77 76 71 66 68 69 68 67 71 81 94 100 100 99 100 101 100 97 91 82 74 69 67
75 69 66 64 64 62 60 56 51 46 38 31 25 19 15 13 12 11 9 9 9 9 8 8 7 7 7 7 6 6 6 6 6 6 6 6 6 5 6 7 6 8 9 10 21 41 57 75 92 97 99 99 86 68 63 63 60 58 57 52 49 56 73 86 88 87 93 96 93 92 96 98 100 100 100 100 98 95 92 87 78 71 69 68 66
72 68 65 63 59 53 46 39 31 24 18 13 11 9 7 7 7 7 7 6 7 7 6 6 6 6 6 6 5 6 6 6 6 6 6 6 6 6 7 7 6 9 11 10 15 24 38 67 96 101 96 100 97 83 72 64 55 50 46 40 37 45 62 82 94 100 103 101 95 95 99 100 100 101 100 95 91 87 82 77 73 72 72 69 65
56 50 44 38 31 25 20 16 13 10 9 8 8 7 7 7 6 7 7 7 6 6 6 6 6 6 6 6 7 7 7 8 9 10 10 10 10 10 10 10 9 9 11 12 15 15 21 50 89 104 100 100 101 94 86 77 61 44 31 31 45 61 72 84 98 105 103 97 94 96 100 101 102 100 94 89 85 80 76 76 78 78 76 71 65
22 19 17 14 12 11 10 9 8 8 7 7 7 7 7 7 7 7 7 7 8 9 8 8 8 9 11 13 14 14 14 14 16 18 17 17 18 18 20 21 19 17 15 13 16 17 14 25 52 78 92 98 92 78 66 59 55 52 52 60 79 94 93 90 92 95 96 97 99 101 103 102 98 94 89 85 82 81 82 85 86 83 78 72 63
13 12 11 10 9 9 8 8 8 8 8 8 8 8 8 8 8 9 10 12 17 21 24 24 22 20 20 22 24 24 22 19 17 17 17 17 17 17 20 23 26 30 30 24 20 20 16 14 22 35 44 51 48 36 22 19 37 66 86 92 98 104 99 90 88 92 97 102 103 100 98 95 89 86 85 86 88 92 95 94 91 86 78 68 54
10 9 9 8 9 9 9 9 9 9 9 9 9 10 12 14 16 19 21 23 27 31 35 35 32 27 24 23 21 21 20 18 16 16 16 17 17 16 17 18 20 26 35 40 37 30 22 19 18 16 17 19 19 16 15 24 47 75 91 93 96 101 98 93 94 99 103 102 96 87 84 84 85 85 88 92 97 100 98 95 90 83 71 56 41
10 10 10 10 10 10 10 10 11 12 15 17 20 23 27 28 29 30 30 29 29 30 29 29 29 27 24 20 19 18 18 17 17 17 18 19 19 19 20 21 20 19 24 37 45 43 37 32 26 20 19 17 13 19 40 61 77 89 93 94 98 100 97 97 101 103 100 94 86 79 76 78 82 86 91 96 99 99 97 93 84 72 58 44 31
13 13 13 13 15 16 17 19 22 27 31 35 37 38 37 35 33 30 28 28 29 28 28 27 25 23 20 18 16 14 13 13 13 14 15 16 16 17 18 19 22 24 23 30 41 46 45 44 41 32 21 12 14 38 72 92 98 100 100 99 100 99 99 103 105 100 93 85 78 73 71 73 78 86 92 96 98 98 93 84 70 56 44 32 22
17 18 21 24 27 30 34 38 42 45 46 44 42 39 35 32 30 29 29 32 31 30 29 25 19 17 15 12 9 9 11 13 12 11 12 12 11 13 13 13 18 25 25 27 38 47 48 49 49 42 33 34 47 73 95 100 100 102 100 99 101 102 101 103 102 95 88 82 75 70 72 77 84 92 97 98 98 92 82 69 55 44 34 24 16
28 30 33 37 41 45 50 54 54 53 49 43 39 36 33 31 31 32 34 34 32 28 24 19 16 16 11 8 13 19 21 23 29 36 41 36 27 23 20 16 19 25 26 29 41 48 49 51 49 46 58 79 92 97 100 99 98 102 102 99 101 103 102 101 97 88 82 79 75 74 82 92 97 99 100 98 92 80 66 56 45 35 25 18 14
48 48 48 49 51 54 57 57 55 51 46 42 38 35 33 32 32 34 34 33 30 26 22 19 18 14 11 17 31 38 38 46 64 78 83 77 66 60 53 41 30 26 25 33 44 46 46 52 50 46 67 98 104 97 99 102 99 98 101 102 102 102 100 95 86 78 77 80 82 83 90 96 97 95 94 89 80 67 56 46 36 26 19 16 15
60 59 57 55 54 54 52 51 48 45 42 40 37 35 34 33 33 34 34 33 29 25 22 21 17 13 19 38 52 53 55 72 88 92 91 89 89 91 90 78 62 47 38 41 50 48 45 52 53 46 61 92 105 99 97 101 100 99 102 103 99 91 85 82 79 79 86 93 94 93 94 94 94 92 87 77 67 55 45 36 27 20 17 15 16
66 65 63 60 58 54 50 48 45 43 42 40 38 37 35 35 36 35 33 31 28 25 23 20 14 16 36 62 69 59 59 75 88 90 91 95 98 99 101 100 94 82 67 60 59 53 46 47 47 40 46 71 96 103 100 99 100 101 102 100 94 87 87 92 94 94 100 103 99 97 97 94 90 84 74 62 53 44 36 30 24 19 17 16 17
71 68 65 61 57 52 47 44 42 41 42 41 39 37 36 35 36 35 32 30 28 26 23 17 12 22 51 77 80 71 70 78 86 92 97 101 100 98 99 101 102 96 83 70 61 54 49 45 43 42 43 51 71 92 102 101 100 100 101 101 95 88 93 103 103 99 101 101 96 94 94 88 80 71 60 51 44 38 33 29 25 20 17 17 19
75 71 66 61 55 48 42 37 35 34 35 35 34 33 32 34 36 33 31 31 29 25 21 14 10 27 59 80 82 84 88 90 91 94 95 97 101 102 99 97 96 93 87 80 69 62 57 51 48 59 71 73 74 87 99 102 99 98 101 103 95 85 89 100 102 100 100 97 91 89 86 78 69 61 52 44 39 35 32 30 27 23 20 17 20
73 71 67 62 56 50 44 38 34 31 29 28 28 26 26 31 33 31 30 31 28 23 19 13 11 32 65 80 79 85 94 95 94 95 90 89 97 101 94 88 86 81 77 73 67 63 63 59 58 73 93 99 94 95 99 101 101 100 100 101 96 91 94 101 102 100 98 93 86 83 79 71 63 56 48 41 37 33 30 29 27 24 21 18 21
73 71 67 63 58 54 49 44 39 35 31 28 26 24 23 26 29 29 30 32 29 23 17 12 14 37 67 78 75 77 83 85 88 92 90 89 96 98 90 83 78 68 60 63 71 75 73 67 67 79 94 99 99 100 101 100 101 100 100 100 99 97 99 102 102 101 99 93 85 81 76 69 62 55 47 40 35 30 27 26 24 22 21 19 22
75 72 68 63 59 55 52 47 42 38 34 30 27 25 23 24 26 29 32 33 29 24 17 12 19 43 69 78 76 75 76 76 79 85 90 91 89 82 74 69 59 50 55 74 92 99 95 87 83 86 88 86 87 93 98 101 102 101 99 100 101 100 100 100 100 101 99 91 83 79 75 69 62 55 46 40 35 31 27 25 22 21 21 20 25
70 67 64 61 58 55 51 47 42 38 35 31 28 26 25 24 25 29 33 34 31 25 18 15 26 48 66 72 69 65 64 65 68 68 71 74 69 60 58 54 43 43 69 97 104 99 99 101 99 97 94 91 90 92 94 96 97 95 92 92 93 92 92 91 90 90 89 85 81 78 74 67 60 53 45 40 36 32 29 26 24 22 22 23 32
61 58 57 56 54 52 49 44 41 37 34 32 29 27 26 25 24 27 34 37 34 27 20 18 28 46 59 63 62 60 59 62 65 65 67 72 71 67 70 70 57 55 79 102 102 95 97 101 100 99 100 100 99 99 98 96 94 89 84 81 79 77 76 77 77 79 82 83 82 77 71 64 57 51 46 41 38 34 31 28 25 25 27 33 43
55 54 53 52 51 50 46 42 40 37 34 32 30 28 27 26 25 28 37 42 39 31 25 21 28 43 55 59 61 64 64 61 59 58 61 68 69 68 72 78 73 67 73 82 84 83 88 92 95 98 100 99 99 100 100 99 96 90 83 80 81 81 80 82 86 90 92 91 84 76 69 62 56 50 46 41 38 36 35 33 33 37 42 48 52
Wind_Speed
13 14 15 14 15 16 16 15 16 16 17 18 18 18 18 17 15 14 14 14 13 13 12 11 11 10 10 9 8 7 7 8 9 10 11 12 13 14 14 14 14 14 14 13 12 12 12 12 12 11 11 10 9 9 9 9 10 11 12 12 12 12 13 13 15 15 14 14 15 15 13 13 14 15 15 15 14 14 15 17 18 18 16 16 16
15 16 17 17 17 18 17 16 16 17 18 18 18 18 17 15 14 14 14 14 14 14 13 13 12 11 10 9 8 8 8 8 8 9 9 10 11 12 12 12 12 12 12 12 12 12 12 13 12 12 12 12 11 11 11 11 12 13 13 14 14 14 14 14 15 14 13 13 14 14 13 13 13 13 14 15 14 14 15 17 18 18 17 16 16
19 19 20 21 20 20 20 18 17 18 19 19 19 18 17 15 15 15 15 15 15 14 14 13 12 12 10 9 9 8 9 9 8 8 8 9 10 10 10 9 9 10 10 10 11 11 12 12 12 13 13 13 13 14 14 13 14 14 14 14 14 14 15 16 15 13 12 13 13 14 14 15 14 14 14 15 14 15 17 18 18 18 18 18 17
21 22 22 22 23 23 22 20 19 19 20 21 20 19 17 16 16 16 16 16 15 14 13 13 12 12 11 10 10 10 10 10 10 9 9 9 9 9 9 9 9 9 9 10 10 11 11 11 12 12 13 14 14 15 15 15 15 16 15 13 13 14 15 16 15 14 13 14 15 15 15 15 15 15 15 15 15 15 17 19 19 19 19 19 19
20 22 22 22 22 23 22 21 20 21 23 22 21 20 18 17 17 18 18 17 17 16 14 14 13 13 12 11 11 11 11 12 11 11 11 10 10 10 10 10 10 10 10 10 10 11 11 12 12 12 13 14 14 15 15 15 15 16 16 15 14 14 15 16 17 16 15 16 17 17 17 16 16 17 17 17 17 18 19 20 21 21 21 22 22
19 21 23 23 24 22 21 22 23 24 24 23 22 21 20 19 20 20 20 19 18 17 16 16 15 15 14 14 13 13 13 13 13 13 13 12 12 12 12 11 11 11 12 12 13 14 14 15 15 14 13 14 14 14 14 14 15 16 17 17 17 16 17 17 18 18 18 18 19 20 20 19 18 19 19 19 20 21 22 23 23 23 24 25 25
19 22 23 23 25 24 21 23 25 26 26 25 24 22 21 21 21 21 21 20 19 18 18 18 18 17 17 16 15 15 14 14 14 15 15 14 14 14 13 13 14 14 15 16 16 17 17 17 17 16 16 15 16 16 15 15 15 16 17 18 18 19 20 20 20 20 21 21 22 23 24 23 23 23 23 23 23 23 24 25 25 25 26 28 29
17 19 19 20 24 25 24 25 26 28 28 26 24 23 22 22 22 21 21 20 20 20 19 19 20 19 19 19 17 17 16 16 16 16 16 16 16 16 15 15 16 17 17 18 18 19 19 19 18 18 18 18 17 18 18 18 17 18 19 20 20 21 22 23 23 22 23 24 25 25 26 26 27 27 27 27 27 27 28 29 29 28 29 30 32
16 17 17 17 21 24 25 25 25 27 27 25 23 22 22 21 21 21 22 22 21 21 21 21 21 20 20 20 19 19 18 18 18 18 17 18 18 17 17 17 18 18 19 20 20 21 22 22 21 21 20 20 20 21 22 22 21 21 21 22 23 23 24 26 26 26 25 25 26 27 28 28 29 30 30 30 31 31 32 32 32 32 31 31 31
16 17 18 17 19 22 22 21 21 23 24 23 22 22 21 21 21 22 23 23 22 22 22 22 22 22 22 22 21 21 21 20 20 20 20 20 20 19 19 18 19 19 19 20 21 23 24 25 25 24 24 24 25 26 26 26 26 26 25 25 25 25 25 26 28 29 29 28 28 28 29 30 30 31 31 31 32 33 33 33 33 33 31 30 30
17 18 18 17 17 18 20 18 16 18 20 21 21 22 22 23 23 23 23 23 23 23 24 25 25 25 25 24 23 23 23 22 22 22 22 22 21 21 20 19 19 20 20 21 22 22 24 26 26 26 27 28 28 29 29 29 29 28 28 28 28 28 28 28 29 30 32 31 31 31 31 32 31 30 31 32 32 33 33 34 34 33 32 32 33
18 18 17 16 16 17 18 18 16 16 18 20 21 22 24 25 25 24 24 24 25 26 27 28 28 27 27 26 25 24 24 24 24 24 24 24 23 23 22 22 21 21 22 22 23 24 26 27 27 27 27 28 30 30 30 30 30 30 30 31 31 31 32 32 32 32 33 34 34 34 34 33 32 31 32 33 33 33 33 33 33 33 34 36 37
19 18 17 17 18 19 21 22 22 22 22 22 23 25 27 27 27 27 26 27 28 29 29 30 29 28 27 27 26 25 26 26 27 27 27 26 26 25 25 24 24 24 24 24 25 26 26 27 27 28 28 29 30 30 31 31 31 31 32 32 32 33 34 35 36 36 36 37 37 37 36 35 34 35 36 36 35 34 33 33 34 35 37 38 39
21 21 20 20 21 23 25 27 28 28 27 26 26 28 29 30 31 31 30 30 30 30 30 30 30 29 28 28 27 27 28 29 30 30 30 30 29 29 29 28 27 27 27 27 28 28 28 29 29 30 31 31 31 31 31 31 31 31 32 33 34 36 37 37 38 39 38 38 39 40 39 37 37 38 39 39 38 36 35 35 36 37 38 39 39
24 24 25 25 26 27 29 30 32 33 33 30 29 30 30 31 32 31 31 31 31 31 31 31 31 31 30 31 31 31 32 32 32 33 33 32 33 33 33 33 32 30 29 29 30 31 32 33 33 34 34 34 34 34 34 34 35 35 35 37 39 40 41 40 40 40 40 39 39 40 40 39 39 41 41 40 38 37 36 37 38 38 39 40 40
27 28 28 29 29 30 31 32 33 34 35 33 32 32 31 31 31 32 32 33 33 33 33 33 34 34 35 35 36 36 36 36 36 37 37 37 37 38 38 38 37 34 32 31 32 33 35 36 37 39 39 37 37 37 36 37 40 40 40 41 43 43 43 43 42 41 40 40 40 39 39 40 40 41 40 38 38 38 39 40 40 40 41 41 41
31 31 31 31 32 32 32 33 34 35 36 36 35 34 33 33 33 34 35 36 36 37 37 38 38 38 39 40 41 41 41 41 40 41 42 43 43 43 42 42 41 40 36 34 34 35 37 38 39 41 43 42 41 40 39 40 42 41 41 42 43 44 43 43 43 43 42 41 41 40 39 38 38 39 39 39 41 42 42 43 43 43 42 42 41
33 34 35 35 35 34 33 34 35 35 36 37 37 37 37 37 37 37 38 39 39 40 40 41 42 42 43 44 45 46 45 45 45 46 47 48 48 47 45 44 44 44 43 40 39 40 41 41 41 42 45 45 44 43 42 42 42 41 41 42 42 42 42 43 44 45 44 43 43 42 41 40 40 40 41 42 43 43 43 44 44 44 43 43 43
39 40 40 39 39 38 38 38 38 37 38 40 41 41 42 42 41 41 41 41 42 43 43 44 44 46 47 47 48 48 49 49 49 50 51 51 50 49 47 46 46 47 47 47 46 46 46 46 45 45 46 47 47 46 45 45 44 44 44 45 44 42 42 44 46 47 47 46 45 43 42 41 41 41 42 42 43 43 43 43 44 44 45 45 45
42 42 43 43 43 43 43 42 42 42 43 44 45 46 45 45 45 44 44 44 45 46 47 47 48 49 50 51 51 52 52 52 51 51 51 51 51 49 48 47 48 49 51 51 51 51 51 51 50 48 48 49 49 49 48 48 47 47 48 47 45 45 46 47 49 50 49 47 43 40 39 39 39 40 40 41 42 42 42 42 43 44 45 46 46
41 42 44 45 47 47 46 46 46 46 47 48 48 49 48 47 47 47 48 48 48 49 50 50 51 52 52 52 53 54 54 53 52 51 51 52 52 51 50 49 50 52 54 55 55 55 56 56 55 53 52 51 51 51 51 51 51 50 49 48 47 48 50 51 53 52 51 48 43 39 38 37 36 37 39 40 41 41 41 41 42 44 45 47 48
45 45 44 45 46 46 47 47 47 48 49 50 50 50 50 50 49 50 51 52 52 52 52 52 52 52 52 52 53 53 53 53 53 52 53 54 54 54 54 54 56 58 59 59 59 60 60 60 58 57 55 54 53 52 53 53 53 51 50 49 50 52 52 52 52 51 51 50 46 41 38 37 36 37 39 40 40 40 40 41 42 43 45 47 47
45 44 43 43 44 44 45 45 45 46 47 47 48 49 49 50 50 51 52 52 52 52 52 52 52 53 53 53 54 54 55 55 55 55 56 57 58 59 59 60 61 63 64 64 64 64 64 63 61 59 58 57 56 55 55 54 53 51 49 49 50 50 50 50 51 51 50 48 46 43 39 38 39 40 40 39 39 39 40 41 42 44 45 45 47
47 46 45 45 45 45 46 46 47 47 48 48 50 51 52 52 53 54 54 54 54 54 54 54 55 55 56 57 58 59 60 61 61 62 63 63 63 63 64 64 65 66 67 67 67 67 67 65 64 63 61 59 58 57 56 54 53 51 49 48 48 48 49 50 52 53 50 47 47 47 45 43 44 44 42 40 40 40 41 42 43 44 45 46 47
52 52 52 52 52 52 51 51 51 51 51 52 53 54 55 55 56 57 57 58 58 58 58 59 60 61 62 63 64 64 65 66 67 68 68 67 67 66 66 66 67 67 68 67 67 67 67 66 65 64 62 61 61 60 57 55 53 52 51 49 48 48 49 50 51 52 51 50 49 49 48 47 46 44 41 41 40 41 42 44 45 46 46 46 46
52 52 53 54 54 54 54 53 53 53 54 54 54 55 56 56 56 57 58 58 59 59 60 61 62 63 64 65 65 66 66 67 68 69 69 69 69 69 68 67 67 67 67 67 66 66 65 64 63 61 61 60 59 57 56 54 52 52 51 49 47 46 47 48 49 48 46 47 48 48 46 46 43 41 40 41 41 42 44 46 47 47 46 44 43
52 52 53 53 53 54 53 53 53 53 54 54 54 55 56 56 57 57 58 59 60 60 61 62 63 64 64 65 65 66 66 67 68 69 69 69 69 69 69 68 68 68 66 64 63 62 61 60 59 58 58 57 56 55 55 54 53 52 50 48 46 45 45 47 48 47 44 44 46 47 47 46 43 41 41 43 44 45 45 46 46 44 42 40 40
51 51 52 52 52 53 53 53 53 54 54 55 56 57 58 59 59 60 61 62 63 64 64 65 66 66 66 66 67 67 67 68 70 71 71 71 71 71 71 70 69 68 66 63 61 61 61 60 60 60 58 57 56 55 55 54 53 52 49 46 45 45 45 46 48 50 49 49 50 51 51 49 45 42 42 44 45 45 44 43 41 38 37 37 39
50 51 51 51 52 53 54 54 55 56 57 58 59 60 61 62 62 63 64 65 66 66 66 67 67 68 68 68 69 68 68 68 70 71 71 71 71 71 71 70 68 67 64 61 59 59 60 59 58 57 55 53 51 50 50 51 50 48 46 44 42 42 43 44 46 49 51 52 52 52 51 47 42 40 40 41 40 38 37 35 34 34 35 37 39
51 52 53 54 55 56 56 57 58 59 60 61 62 62 63 63 64 64 65 65 66 67 67 67 68 68 68 68 68 68 67 66 66 67 67 67 67 66 66 66 65 63 60 56 52 52 54 53 50 49 49 50 50 48 47 47 46 45 44 42 41 40 40 41 44 45 46 46 45 44 41 38 34 33 32 31 30 30 30 31 32 33 35 36 37
54 55 56 57 58 58 59 60 61 61 61 62 62 62 62 63 63 64 64 64 65 65 65 65 65 65 64 63 63 63 62 61 60 61 62 61 61 61 61 61 60 59 57 53 49 49 51 51 48 46 47 48 49 48 46 46 45 44 42 41 41 40 40 40 42 42 40 39 39 37 34 32 30 30 29 29 29 30 31 32 33 34 35 35 35
57 58 59 59 60 61 61 61 62 62 62 62 62 61 61 60 60 60 61 61 60 60 60 60 60 60 60 59 58 58 57 56 56 56 57 57 57 57 57 57 57 56 55 52 49 50 52 51 46 43 42 41 40 41 41 42 43 43 43 43 41 40 40 41 42 40 38 37 37 34 32 31 31 32 32 33 33 33 33 33 33 33 33 33 33
58 58 59 59 59 59 59 59 59 59 58 58 57 57 56 56 55 56 57 57 57 57 57 57 56 56 55 54 53 52 51 49 48 48 49 49 49 50 50 50 51 52 53 52 50 52 55 53 46 39 34 29 29 32 35 36 37 39 40 41 40 41 41 41 40 39 38 36 34 33 32 33 34 35 35 35 34 34 34 33 32 32 32 31 31
52 52 52 52 52 52 51 51 51 51 51 51 51 51 51 51 51 51 51 51 50 50 50 49 48 47 45 44 44 43 42 41 40 40 41 41 41 41 42 43 44 46 48 50 51 52 56 58 56 52 45 39 38 40 41 40 39 38 37 37 38 38 38 37 38 38 36 34 33 34 35 35 35 34 33 32 32 32 31 31 30 30 30 29 30
44 44 43 43 44 44 44 44 45 45 46 46 46 46 46 45 44 43 41 40 39 39 40 40 40 39 38 38 39 40 40 39 38 39 40 40 41 41 40 39 40 41 42 45 48 51 54 57 60 61 60 57 54 51 48 46 43 39 37 37 37 36 35 36 38 36 33 32 32 33 34 34 33 31 29 29 29 29 29 29 29 28 28 28 29
39 39 39 40 40 41 41 41 41 41 40 39 39 38 36 35 34 33 33 33 33 33 35 37 38 39 39 39 39 41 42 43 43 43 45 46 46 45 43 41 40 40 40 40 43 46 50 53 55 57 59 58 54 49 45 43 42 39 38 40 42 41 40 38 35 33 31 31 31 31 31 31 29 27 26 27 27 27 27 27 26 26 26 27 29
36 36 37 37 37 36 36 35 33 32 31 30 30 29 28 28 28 29 30 31 32 33 34 35 37 39 41 42 43 45 47 49 51 51 52 53 53 51 49 47 44 42 41 40 40 41 43 45 48 50 50 50 48 46 45 44 43 42 42 43 44 43 39 35 33 33 34 34 31 29 28 27 26 25 25 26 26 25 24 24 24 24 26 27 29
31 31 31 30 30 29 28 27 26 25 24 24 24 24 25 26 27 28 29 30 31 32 33 34 37 40 43 45 48 50 53 55 56 57 58 58 58 57 55 53 50 46 43 41 40 39 38 39 41 41 42 43 43 44 47 50 48 44 41 39 36 34 34 36 37 37 34 31 29 27 26 25 25 25 25 25 24 22 22 22 23 24 26 28 28
25 25 24 23 23 22 22 22 22 21 21 22 22 23 24 25 26 27 28 29 30 31 33 36 38 41 43 46 48 49 49 48 48 48 48 48 49 50 50 50 49 48 44 41 39 38 36 37 36 34 34 37 37 37 42 45 44 38 35 34 33 33 36 38 36 32 28 27 26 26 26 26 26 26 25 23 21 21 21 22 23 25 27 27 26
21 20 19 19 19 20 20 21 21 21 21 22 23 23 24 25 26 27 27 28 30 32 35 37 40 42 44 44 41 38 36 35 33 31 31 32 33 35 37 39 41 41 41 40 39 36 34 34 33 31 32 33 32 32 34 35 34 32 32 31 31 32 34 33 30 27 26 26 26 25 26 27 27 25 23 21 20 21 22 22 23 25 26 25 24
18 18 18 18 19 19 19 20 21 21 21 22 23 24 24 25 25 26 27 28 30 33 36 38 40 42 41 36 30 28 26 22 18 18 21 23 23 23 25 28 32 35 37 37 36 35 33 33 32 33 36 35 32 30 30 29 28 29 30 29 29 31 31 29 27 25 26 27 27 27 28 27 25 23 21 21 21 21 21 22 23 24 24 24 24
16 15 16 16 16 17 17 18 19 19 20 21 22 22 23 24 25 25 26 28 31 33 35 36 39 39 33 27 23 21 18 12 10 13 17 19 16 15 17 20 23 27 31 33 33 32 32 31 31 34 38 37 33 30 29 28 28 29 31 30 29 28 28 28 27 27 28 29 29 28 27 25 24 22 21 21 21 20 20 21 22 22 23 23 24
13 12 12 13 14 14 15 15 16 17 17 18 19 20 21 22 23 24 25 27 29 31 32 36 37 32 24 20 19 17 12 7 8 10 12 12 11 13 15 16 17 20 24 27 29 29 29 29 30 33 38 42 39 31 25 26 30 31 31 30 29 27 27 28 29 29 30 30 29 27 26 24 23 21 20 20 19 19 19 20 20 21 22 23 23
12 11 11 12 12 12 13 13 13 14 14 15 16 17 18 19 20 21 23 25 27 28 31 35 33 25 17 15 15 14 10 7 7 8 7 6 6 8 11 12 13 15 19 22 24 26 26 26 27 29 33 40 43 36 27 25 30 33 31 31 32 32 30 29 29 29 30 30 29 27 24 22 20 19 18 18 18 18 19 19 20 21 22 23 23
12 12 12 12 12 12 12 12 13 13 13 13 14 15 16 17 18 20 21 23 25 27 30 32 28 19 14 13 13 14 13 12 12 11 10 9 7 6 6 8 10 12 15 17 19 21 22 22 24 25 25 28 36 39 34 26 25 27 30 32 34 35 33 31 29 28 27 28 27 24 21 19 18 18 17 18 18 18 18 19 20 21 23 23 24
13 13 14 14 14 14 13 13 14 14 14 14 14 15 15 16 18 19 21 23 24 26 29 29 22 14 11 11 12 13 15 15 16 16 16 16 15 13 10 8 9 11 13 15 16 18 18 18 21 26 27 25 28 35 37 30 23 22 26 29 30 31 30 28 26 25 24 24 23 21 19 18 18 18 18 18 18 18 18 19 20 21 23 24 24
14 14 14 14 14 14 14 14 15 15 15 15 15 16 16 17 18 20 21 23 24 26 27 25 18 11 9 9 10 11 12 12 12 13 13 14 15 14 13 12 11 12 13 14 15 15 15 16 19 26 31 32 31 33 37 36 30 26 27 28 29 28 25 23 22 22 22 22 21 20 19 19 19 19 19 18 18 18 18 19 20 22 24 25 25
12 13 13 13 13 14 14 15 15 15 15 16 16 16 17 17 18 19 21 22 23 25 25 22 15 9 7 7 8 9 10 9 8 8 8 9 10 11 11 12 12 12 13 15 16 15 12 11 14 20 26 31 32 34 36 37 35 31 30 31 31 29 27 25 24 23 22 21 20 20 20 20 20 20 19 19 19 19 19 19 21 23 25 25 25
11 11 11 12 13 14 14 15 15 16 16 16 16 16 17 17 18 19 20 21 22 22 22 19 12 7 5 6 6 7 7 6 5 5 5 5 6 7 7 7 8 10 14 16 17 15 12 11 13 15 17 19 22 26 29 31 31 30 30 31 31 31 30 28 27 25 23 22 21 21 21 21 21 20 20 20 19 19 19 20 22 24 25 26 25
11 11 12 13 14 15 15 16 16 16 16 16 16 16 16 17 18 18 18 19 20 20 19 16 11 6 4 4 4 3 3 2 2 2 1 1 1 2 4 4 5 9 14 16 14 13 13 13 13 14 14 15 17 19 20 22 23 24 25 26 26 26 26 26 25 25 24 23 22 22 22 22 21 20 20 20 19 19 20 22 24 25 26 26 25
13 13 14 15 15 16 16 17 17 17 16 16 16 16 16 16 17 17 17 17 17 17 16 14 10 7 4 3 4 5 6 5 5 5 5 4 4 2 1 2 3 7 11 13 13 12 12 13 13 13 14 16 16 17 17 18 19 20 21 21 21 21 22 23 24 24 24 24 24 23 22 21 21 21 20 20 20 21 22 24 26 26 26 25 24
Wind_Direction
238 237 237 234 233 234 237 242 244 246 249 247 245 242 240 240 238 238 242 245 246 247 249 252 253 254 257 260 264 266 264 263 264 265 267 267 265 263 262 262 261 261 261 262 262 261 260 258 256 255 257 260 263 265 266 267 268 269 269 268 266 264 261 259 259 261 264 266 267 266 266 268 270 272 272 271 269 269 268 267 267 267 268 267 267
233 232 234 234 234 236 239 241 241 242 246 245 241 237 233 230 230 235 239 241 244 247 249 252 253 254 257 261 265 266 262 260 260 261 265 266 267 266 265 265 264 265 266 267 267 267 267 266 267 268 271 273 275 276 277 278 279 278 278 276 274 272 268 264 260 260 260 261 265 268 268 265 265 268 271 273 276 276 272 268 268 269 268 266 267
231 233 232 229 228 230 233 235 236 238 240 237 233 230 227 226 229 234 237 240 244 248 250 252 253 255 257 261 265 266 264 265 266 265 263 261 261 262 263 264 266 267 269 268 268 269 269 271 273 276 277 277 278 279 278 278 278 278 278 278 278 277 274 270 266 262 258 257 259 262 264 265 265 264 265 269 274 278 275 272 272 273 273 272 273
235 233 230 226 225 227 228 230 231 233 232 229 226 225 225 227 232 235 239 243 248 251 253 254 256 257 259 262 265 265 266 268 270 270 269 266 265 263 261 262 265 267 268 268 269 271 275 277 279 280 280 280 279 279 279 278 277 276 275 274 274 275 275 274 272 269 265 263 263 262 261 263 264 265 265 266 271 275 276 276 277 279 279 278 279
240 236 236 234 231 230 228 228 231 230 227 224 223 224 226 230 235 239 243 247 251 252 254 256 259 261 263 266 268 269 272 275 278 280 279 275 274 274 273 273 274 276 277 278 282 285 288 290 290 290 288 286 284 282 281 281 280 279 279 277 274 271 271 273 273 272 269 268 267 265 262 260 262 265 268 270 272 273 273 273 275 277 277 276 277
236 237 239 239 239 238 233 230 231 229 226 223 222 224 228 232 237 241 245 248 250 249 252 254 257 259 261 264 267 270 275 280 283 286 285 282 282 282 283 284 286 289 292 296 301 304 307 308 308 304 298 291 287 283 282 281 281 281 282 282 281 278 274 273 273 274 274 274 274 274 273 270 267 266 268 269 270 270 271 271 272 273 274 274 275
233 235 233 231 232 234 234 232 231 227 224 224 224 225 229 233 237 242 244 246 247 247 249 251 253 255 256 259 263 266 271 275 278 280 281 281 283 285 287 289 292 295 298 302 306 310 313 315 314 311 303 295 291 289 287 285 284 284 283 283 283 283 281 279 278 279 281 282 281 280 281 280 277 274 272 271 271 272 274 275 276 277 277 276 276
239 230 226 227 228 231 233 231 229 225 222 223 226 228 231 234 237 241 243 244 245 246 247 248 250 253 255 257 260 263 266 269 271 274 276 278 281 283 286 289 292 295 297 300 303 306 307 308 308 305 300 296 294 292 291 289 287 284 282 281 281 282 282 281 278 276 277 279 279 278 278 278 277 275 273 271 271 271 272 273 274 275 276 276 275
242 233 234 238 235 235 235 231 229 226 223 225 228 230 234 237 240 243 245 245 245 245 245 246 249 253 254 256 258 261 265 267 268 270 273 275 277 280 284 287 289 292 295 298 300 301 301 300 299 296 293 290 289 288 289 290 289 286 283 281 280 280 280 279 278 275 273 272 272 274 275 276 276 273 270 269 269 269 269 269 269 271 273 272 271
249 254 260 257 247 238 232 230 235 233 228 229 230 232 237 241 242 243 243 243 244 244 245 246 248 252 255 256 258 261 264 266 268 269 271 272 274 277 280 282 284 287 291 294 296 297 297 296 295 292 290 287 286 286 287 289 290 289 287 285 284 283 281 280 280 279 276 273 271 272 275 279 278 273 267 265 266 268 269 269 271 272 273 272 273
259 266 268 266 258 242 228 228 238 237 232 231 232 235 240 241 239 239 240 241 243 245 247 248 250 252 254 256 258 260 262 264 266 267 268 269 271 272 273 276 280 284 288 291 292 292 292 291 290 288 287 286 286 285 286 287 288 288 286 285 285 284 284 282 280 280 279 276 273 273 275 278 279 273 268 266 267 269 269 270 270 270 271 274 277
253 256 257 258 255 243 232 231 234 235 240 244 242 240 240 238 236 237 240 243 245 247 249 250 251 252 254 255 257 259 262 264 265 264 265 266 266 266 270 275 279 283 286 288 290 290 290 290 288 286 285 284 284 284 284 284 284 283 282 282 282 283 283 282 281 279 279 278 276 274 275 276 275 272 269 269 269 269 268 267 267 268 272 276 278
245 246 247 248 246 239 236 236 235 237 248 255 250 245 241 239 237 238 241 244 246 248 249 250 251 252 253 254 255 259 262 264 265 264 264 265 265 266 270 274 277 279 283 285 287 287 288 287 286 284 284 283 283 283 283 281 281 280 281 282 283 283 283 283 282 280 278 278 277 277 276 275 273 271 271 271 271 270 268 266 267 271 274 276 276
243 243 242 241 240 239 238 237 237 243 251 252 245 243 242 239 238 239 242 243 244 245 246 248 249 250 251 252 254 258 261 263 264 264 264 265 266 268 271 272 272 275 280 284 287 288 286 283 281 282 282 283 282 283 283 282 280 280 282 283 284 285 285 284 282 281 279 277 277 277 276 274 271 270 271 272 272 270 268 268 270 273 275 274 274
248 245 241 238 237 238 239 240 242 247 252 250 244 242 242 240 242 245 247 248 248 248 248 249 250 251 252 253 254 257 259 260 260 261 262 264 266 268 269 269 268 271 277 282 286 289 288 286 283 281 280 280 280 281 282 281 279 280 283 283 283 284 285 284 281 279 278 276 276 277 276 273 272 272 272 272 271 271 272 273 274 275 274 274 273
255 252 249 246 244 243 244 246 248 251 254 254 251 248 247 246 247 249 250 251 251 251 252 252 252 253 255 255 256 258 260 260 260 260 260 261 264 265 266 265 264 266 271 277 282 286 287 286 284 283 280 279 279 279 280 279 278 281 283 283 282 283 284 283 280 277 276 275 275 276 274 271 270 271 272 272 272 274 276 277 277 276 275 274 275
254 252 251 251 252 252 252 253 255 257 258 258 257 254 253 253 253 253 253 253 253 253 253 254 254 255 256 257 258 259 261 262 262 262 261 261 262 263 263 261 260 262 265 271 276 280 282 282 281 281 280 279 278 277 277 277 278 280 281 281 282 284 285 284 280 276 274 274 275 274 272 269 268 269 271 272 274 276 277 277 276 276 275 275 277
251 250 250 253 254 254 255 256 257 257 256 255 254 254 256 258 258 258 257 257 256 256 256 257 257 258 259 260 261 261 262 262 262 263 263 263 264 264 262 259 258 260 264 269 273 277 281 282 280 278 277 277 277 277 277 276 277 278 278 279 280 281 282 281 278 274 273 273 273 272 271 269 269 270 271 272 273 274 274 274 274 274 275 275 277
253 252 253 253 253 253 254 255 256 256 255 255 256 259 262 264 264 263 263 262 262 261 260 259 259 259 260 262 262 262 262 262 264 264 263 264 265 265 263 260 258 259 264 269 273 276 281 283 281 278 276 275 276 277 276 277 277 277 277 278 277 276 275 274 274 274 274 273 272 271 270 270 270 270 271 271 272 273 272 273 273 273 273 274 277
253 254 254 254 254 254 255 256 257 258 258 259 262 265 267 268 268 267 267 267 267 267 266 264 262 262 263 263 263 263 262 263 265 265 264 264 265 265 263 261 261 262 265 269 272 275 280 283 283 280 277 275 275 275 276 277 277 277 277 276 274 272 271 273 276 276 274 273 272 268 268 270 271 272 273 273 273 273 273 273 273 273 273 274 277
255 259 260 258 256 255 256 259 260 261 263 265 267 268 269 270 270 269 269 270 270 270 269 269 268 268 268 267 267 266 266 267 268 268 267 266 267 266 265 264 264 264 266 268 271 275 279 282 282 281 278 276 275 275 275 276 277 277 276 273 271 270 271 274 276 275 273 271 268 266 268 271 273 273 274 274 274 274 274 273 273 274 275 276 277
264 266 266 263 259 257 258 260 261 263 265 267 268 269 269 269 269 269 269 270 270 270 271 272 273 273 273 273 272 271 271 271 272 272 272 271 271 271 270 270 270 269 269 271 273 276 279 281 281 280 279 277 275 275 275 276 276 276 273 270 269 270 271 272 272 273 273 268 263 264 270 271 271 274 276 276 275 275 275 274 274 276 276 276 277
268 268 267 266 264 261 260 260 261 262 263 264 265 265 266 266 267 267 268 269 269 270 271 272 271 271 271 271 271 271 271 271 271 272 273 273 273 272 272 272 272 272 272 273 274 275 278 279 279 278 277 277 276 275 275 275 275 274 272 269 269 270 271 269 267 270 272 267 261 265 270 270 272 274 276 277 277 276 277 276 276 277 277 277 278
265 264 264 264 264 263 262 261 262 262 262 263 263 264 265 265 266 266 267 268 268 268 269 268 268 268 268 269 270 271 271 271 271 271 272 272 272 272 271 271 271 271 272 272 273 274 276 276 276 276 276 276 275 274 274 273 273 272 271 270 269 269 269 268 266 267 269 266 265 269 270 269 271 271 272 276 278 279 279 278 278 278 277 277 279
264 264 265 265 266 266 266 266 266 266 265 265 265 265 266 266 266 267 267 268 268 268 268 268 268 268 269 270 271 272 272 272 272 272 272 272 271 271 271 271 271 271 271 271 272 273 273 274 274 274 274 273 272 272 271 271 271 271 271 270 269 268 267 266 265 266 267 267 269 270 268 267 268 268 270 274 278 280 282 281 279 277 276 276 277
265 266 266 267 268 269 270 270 270 270 270 269 269 269 269 269 269 269 270 270 270 270 270 270 270 270 270 270 270 270 271 271 271 271 271 271 270 270 270 270 270 270 271 271 272 272 272 272 272 272 271 271 271 270 270 270 270 270 270 270 268 266 264 263 263 265 269 271 268 265 265 266 267 269 272 276 279 282 284 283 279 275 274 275 277
266 267 268 269 270 271 272 272 273 273 273 273 273 273 273 273 273 273 273 273 273 273 273 273 272 272 271 271 271 270 270 270 270 270 269 270 270 270 270 270 270 271 271 272 272 272 271 271 270 271 271 271 272 272 271 270 270 269 269 269 266 263 262 262 261 261 264 265 262 263 267 270 272 274 276 277 279 282 282 280 276 273 273 276 279
267 268 269 270 271 272 272 273 274 275 275 276 276 276 276 276 276 276 276 276 275 275 275 274 274 273 273 272 272 271 271 271 270 270 270 270 270 270 270 270 271 271 271 270 270 270 271 271 271 272 272 272 272 272 271 270 269 268 267 267 266 264 263 262 261 259 259 259 261 266 271 273 274 274 274 274 275 276 276 274 272 271 273 278 282
266 267 268 269 270 271 272 273 274 275 275 276 277 277 277 277 277 277 277 276 276 276 275 275 275 275 275 274 273 273 272 272 272 272 271 271 271 271 271 270 271 271 270 270 270 270 271 272 272 271 270 268 268 268 268 267 266 266 266 266 265 265 264 263 263 262 262 263 266 269 272 273 272 271 270 271 270 269 268 267 268 271 275 280 284
264 265 267 268 269 270 271 273 274 275 276 277 277 278 278 278 277 277 277 277 277 276 276 276 275 275 275 275 275 274 274 273 273 273 272 272 271 271 270 270 269 269 268 267 266 267 269 270 270 269 267 264 263 265 265 264 263 264 265 265 265 266 266 265 264 263 265 268 270 270 270 268 266 265 265 264 263 263 265 267 271 276 280 283 284
266 267 269 270 272 273 274 275 276 277 278 278 278 278 278 278 278 277 277 277 277 277 277 277 276 276 276 276 276 276 275 274 273 273 273 272 271 270 269 268 267 266 265 261 257 257 262 266 267 269 269 265 261 261 264 264 264 264 264 265 266 266 265 263 261 261 263 266 267 266 264 262 263 264 265 266 267 270 274 277 279 282 283 282 281
269 271 273 274 275 276 277 278 278 278 279 279 278 278 278 278 279 279 279 278 278 278 279 278 278 278 278 278 278 277 277 276 275 273 273 272 271 270 269 267 266 264 262 258 252 249 252 259 263 267 268 265 261 261 262 263 263 263 262 263 263 262 260 259 258 259 260 262 264 265 264 264 266 269 272 274 276 278 280 281 281 280 278 277 278
271 272 273 274 275 275 276 276 276 277 277 277 278 278 278 278 278 280 280 280 280 279 279 279 279 279 279 279 278 277 276 275 274 273 272 271 270 270 268 266 264 262 259 257 252 245 244 247 251 256 258 258 259 261 260 260 264 264 259 258 258 256 253 253 256 260 263 263 263 262 261 263 267 271 275 276 277 278 278 276 275 274 273 275 277
272 272 272 273 273 273 274 274 275 275 276 276 277 278 278 278 279 279 280 281 281 281 280 280 280 279 279 279 278 277 275 273 271 270 270 270 269 268 267 265 264 261 258 255 251 247 244 243 243 245 246 248 254 259 261 264 266 264 259 257 255 249 246 252 260 265 262 256 253 254 258 265 270 272 273 272 271 270 270 269 269 270 272 275 280
274 274 274 274 274 275 276 276 277 277 278 278 279 279 280 280 280 280 280 280 281 282 283 283 282 281 280 278 278 277 276 274 271 270 270 270 269 269 268 266 265 263 261 257 252 248 246 244 243 245 247 250 255 259 260 260 258 256 255 252 244 240 249 259 260 254 247 245 252 260 265 269 271 269 266 264 263 263 264 266 268 270 273 278 287
277 277 277 278 278 279 279 280 280 280 281 281 281 282 282 282 282 282 282 282 281 282 282 284 284 284 283 281 279 278 277 275 273 272 271 271 270 269 268 266 265 262 261 259 256 253 249 247 246 247 248 250 253 253 251 250 249 246 244 241 241 249 259 259 248 241 245 255 265 270 269 266 264 260 257 257 258 260 263 266 268 271 277 286 296
279 280 280 281 282 282 282 283 283 283 283 284 284 284 284 283 283 283 283 283 283 284 284 286 288 289 288 286 284 281 279 277 275 274 272 270 269 268 266 264 263 262 259 257 256 255 253 251 248 248 247 247 246 245 244 245 245 242 239 240 245 251 252 246 243 253 263 267 268 266 262 257 255 253 253 255 258 261 265 268 271 277 286 295 300
283 284 284 285 285 285 285 286 285 285 284 283 283 283 284 284 285 285 286 287 288 289 289 289 289 289 289 289 287 284 280 277 275 272 270 268 266 265 263 261 259 259 257 254 252 252 253 250 247 247 244 239 238 242 245 242 239 237 238 241 244 245 244 247 255 264 266 264 260 256 252 249 249 251 254 257 259 263 267 270 275 284 294 299 297
286 286 286 286 286 287 287 287 286 284 283 283 284 285 286 287 289 290 291 291 290 289 289 289 290 292 294 294 291 286 282 279 276 274 271 268 264 262 259 257 254 253 252 249 247 247 248 246 244 243 238 234 237 245 244 236 229 228 234 241 244 247 249 252 254 255 254 252 250 247 245 246 248 250 253 256 259 262 266 272 281 292 298 298 293
291 290 288 288 288 287 287 286 285 285 285 286 288 289 290 291 292 292 291 291 290 290 292 294 296 300 302 300 295 290 289 287 284 279 274 270 264 259 255 251 247 244 242 240 239 241 242 240 237 233 227 228 235 239 234 226 224 228 234 238 240 241 242 242 242 243 245 244 242 242 243 245 247 248 251 253 256 261 268 278 289 297 298 294 288
295 293 291 289 288 287 286 286 287 288 289 289 290 290 290 291 291 291 291 292 293 296 298 301 304 308 307 302 297 298 299 295 283 275 277 278 271 260 254 248 240 234 232 232 234 237 237 235 232 226 221 221 227 228 224 222 225 227 226 225 226 228 232 235 237 238 238 237 237 238 240 242 243 246 248 252 258 266 275 286 296 299 295 288 285
294 292 292 292 292 292 292 292 291 292 291 290 289 289 289 290 292 294 295 297 299 301 304 308 312 312 308 300 297 300 301 290 268 269 283 289 280 260 249 246 239 232 228 229 232 235 234 233 231 226 220 219 223 226 225 224 226 226 224 224 226 231 234 235 234 233 233 232 233 234 236 239 242 245 250 256 263 274 284 294 299 296 288 283 284
293 294 296 298 300 300 299 299 297 295 293 291 290 291 293 295 297 299 300 302 305 308 312 315 317 313 302 293 295 297 295 286 279 281 285 283 266 245 236 235 234 229 226 226 230 233 233 233 232 227 222 221 224 229 233 233 233 232 232 231 233 234 232 227 223 224 225 227 229 231 235 238 241 245 253 262 272 282 292 297 297 291 285 282 284
290 293 296 298 299 300 301 304 305 303 302 301 300 301 303 304 305 306 308 310 312 315 319 321 318 309 292 283 285 285 278 271 273 279 283 278 257 238 229 227 227 227 226 226 228 230 232 233 232 228 225 225 227 229 234 236 234 233 232 231 231 229 224 217 213 213 216 220 225 229 232 237 243 251 260 270 279 288 294 296 294 289 285 284 285
287 290 292 294 297 298 301 306 309 309 310 312 313 315 317 318 317 317 318 319 320 322 325 325 319 304 282 274 272 267 263 260 258 261 269 275 277 271 247 229 223 224 226 228 229 229 230 232 229 223 219 222 227 229 227 223 221 222 223 222 221 220 217 211 208 209 213 218 224 229 234 243 251 259 267 274 281 286 291 293 292 289 286 285 286
284 287 290 293 296 299 302 306 308 310 313 315 318 322 325 326 326 327 328 327 328 329 331 329 320 297 276 276 273 264 263 265 265 265 266 268 272 275 267 247 235 231 229 228 228 226 225 224 221 215 210 211 220 226 224 217 211 211 213 213 213 213 210 208 209 213 217 222 227 234 242 250 256 261 267 272 278 283 288 290 290 287 286 286 285
281 285 289 293 296 299 303 306 307 309 312 315 317 321 325 328 331 333 335 335 335 336 337 336 326 298 277 283 282 273 269 270 270 269 265 261 261 262 257 250 244 237 228 221 214 209 208 211 214 214 215 216 220 223 223 222 220 216 213 213 213 213 214 216 220 223 225 229 234 239 245 250 255 259 264 269 274 279 284 286 286 285 284 284 284
278 282 287 291 295 299 302 304 305 307 310 313 317 321 325 328 332 335 338 340 340 342 344 344 335 310 293 297 294 285 281 278 273 267 258 251 250 251 252 252 246 233 219 207 194 185 184 196 207 213 219 223 227 229 229 230 231 230 226 225 225 226 229 233 236 237 238 240 242 243 245 249 252 256 260 266 272 276 279 282 282 281 281 281 281
280 285 289 294 298 301 302 304 306 307 309 313 316 320 324 328 331 335 339 342 344 347 351 353 348 333 319 316 308 300 296 291 282 270 256 250 250 246 245 250 242 219 201 192 188 188 198 214 222 223 224 225 227 230 233 236 239 240 240 240 241 242 245 247 249 249 249 246 243 243 244 246 249 253 258 264 268 272 275 277 277 277 277 277 278
288 293 298 301 302 303 303 304 306 308 309 311 314 318 322 326 330 334 339 344 348 352 359 5 6 3 354 340 333 342 8 40 54 54 53 17 311 235 225 236 232 206 193 187 188 199 212 221 229 231 227 223 224 228 231 235 239 243 245 245 246 249 251 252 251 248 244 239 237 238 240 243 247 251 256 261 266 268 270 271 271 272 273 274 274
290 296 300 302 302 303 303 304 305 307 308 310 313 317 320 324 328 332 338 344 349 355 6 18 28 34 36 54 79 85 86 83 69 50 36 24 19 19 221 216 210 203 201 203 208 216 221 227 232 231 226 224 226 227 226 228 231 233 234 234 236 238 239 238 235 232 229 227 229 232 237 241 247 251 255 259 262 263 264 266 267 267 268 270 271